Other Public Products
Issued by NWS Grand Forks, ND

Home | Current Version | Previous Version | Graphics & Text | Print | Product List | Glossary On
Versions: 1 2 3 4 5 6 7 8 9 10 11 12 13 14 15 16 17 18 19 20 21 22 23 24 25 26 27 28 29 30 31 32 33 34 35 36 37 38 39 40 41 42 43 44 45 46 47 48 49 50
000
FPUS83 KFGF 310210
OPUFGF
PRAIRIE TO PINES WEATHER ROUNDUP
NATIONAL WEATHER SERVICE EASTERN NORTH DAKOTA/GRAND FORKS ND
900 PM CDT WED JUL 30 2014

 **SATELLITE DATA USED TO AUGMENT SKY COVER AT AUTOMATED STATIONS**
 *****  WEATHER ACROSS EASTERN NORTH DAKOTA  *****

CITY           SKY/WX    TMP DP  RH WIND       PRES   REMARKS
GRAND FORKS    PTCLDY    71  62  73 N3        30.03S
GRAND FORKS AF CLEAR     70  61  75 N2        30.05S
GRAND CITY NWS   N/A     72 N/A N/A N2          N/A
BUXTON         NOT AVBL
DEVILS LAKE    CLEAR     72  57  60 NW6       30.07S
FARGO          PTCLDY    73  56  54 W5        30.04S
WAHPETON ARPT  CLEAR     70  54  56 CALM      30.05S
$$

 *****  WEATHER ACROSS CENTRAL AND WESTERN NORTH DAKOTA  *****

CITY           SKY/WX    TMP DP  RH WIND       PRES   REMARKS
JAMESTOWN      CLEAR     70  59  68 CALM      30.08S
BISMARCK       CLEAR     74  58  57 NE6       30.10S
MINOT          CLEAR     70  58  65 NW3       30.10S
MINOT AFB      CLEAR     71  64  79 W3        30.09F
GARRISON         N/A     72  62  71 CALM      30.11S
WILLISTON      CLEAR     78  50  37 E7        30.12S
DICKINSON      CLEAR     73  57  57 NE5       30.13R
HETTINGER      CLEAR     73  55  53 N5        30.15S
$$

 *****  OTHER OBSERVATIONS NORTHEAST NORTH DAKOTA  *****

CITY           SKY/WX    TMP DP  RH WIND       PRES   REMARKS
WALHALLA         N/A     72  63  73 W3          N/A
LANGDON        FAIR      72  63  73 CALM      30.08S
CAVALIER       FAIR      72  63  73 W3        30.03F
GRAFTON        FAIR      72  61  68 CALM      30.03F
CANDO          FAIR      68  61  77 NW3       30.09S
FORT TOTTEN      N/A     68  58  71 CALM      29.95
ROLLA          FAIR      66  63  88 W6        30.11S
RUGBY          FAIR      68  61  77 NW6       30.09S
 ***** THE ABOVE OBSERVATIONS ARE NON NWS ARE NOT QUALITY
        CONTROLLED AND MAY MIS-REPORT RAIN FOR SNOW...
$$

 *****  OTHER OBSERVATIONS SOUTHEAST NORTH DAKOTA *****

CITY           SKY/WX    TMP DP  RH WIND       PRES   REMARKS
COOPERSTOWN    NOT AVBL
VALLEY CITY    FAIR      66  55  68 NW5       30.08S
OAKES          NOT AVBL
GWINNER        CLEAR     72  63  73 CALM      30.08S
SHEYENNE NWR     N/A     72  56  57 CALM      29.95S
BUFFALO        NOT AVBL
WYNDMERE       NOT AVBL
 ***** THE ABOVE OBSERVATIONS ARE NON NWS ARE NOT QUALITY
       CONTROLLED AND MAY MIS-REPORT RAIN FOR SNOW...
$$

  *****  WEATHER ACROSS NORTHERN MINNESOTA  *****

CITY           SKY/WX    TMP DP  RH WIND       PRES   REMARKS
FLAG ISLAND    CLEAR     73  63  68 NW7       29.98S
WARROAD        CLEAR     70  63  78 W5        30.01S
ROSEAU         CLEAR     72  61  68 W6        30.02S
HALLOCK        CLEAR     73  61  64 CALM      30.02S
THF RVR FALLS  CLEAR     68  57  68 W5        30.04S
HALSTAD          N/A     69  61  75 NE5         N/A
FOSSTON        CLEAR     64  54  68 CALM      30.06S
BAUDETTE       PTCLDY    70  60  70 CALM      30.00F
WASKISH        CLEAR     72  63  73 W7        30.01S
CROOKSTON      CLEAR     70  61  73 CALM      30.05R
$$
  *****  WEATHER ACROSS CENTRAL AND WEST MINNESOTA  *****

CITY           SKY/WX    TMP DP  RH WIND       PRES   REMARKS
BEMIDJI        CLEAR     67  55  63 W6        30.04S
PARK RAPIDS    CLEAR     64  56  75 NW6       30.05F
WADENA         CLEAR     63  55  77 CALM      30.06S
DETROIT LAKES  CLEAR     68  59  73 CALM      30.07S
MOORHEAD       PTCLDY    73  61  64 CALM      30.05S
FERGUS FALLS   CLEAR     72  54  53 CALM      30.05S
ELBOW LAKE     FAIR      69  63  81 CALM      30.06S
MORRIS MN      CLEAR     68  59  73 CALM      30.06S
STAPLES        CLEAR     64  55  72 W5        30.06S
WHEATON        CLEAR     68  57  68 CALM      30.08S
$$
  *****  WEATHER ELSEWHERE ACROSS MINNESOTA  *****

CITY           SKY/WX    TMP DP  RH WIND       PRES   REMARKS
DULUTH         CLEAR     69  56  62 W7        29.98S
INTRNTL FALLS  MOCLDY    68  59  73 W3        29.98S
ELY            CLEAR     63  61  94 CALM      29.98S
CLOQUET        CLEAR     70  55  60 W7        30.00R
BRAINERD       PTCLDY    70  57  63 W5        30.04S
HIBBING        MOCLDY    70  57  63 W7        30.00R
ALEXANDRIA     CLEAR     69  56  62 W3        30.08S
SAINT CLOUD    CLEAR     71  56  58 NW5       30.04R
MINNEAPOLIS    CLEAR     75  56  51 W6        30.03S
$$

  *****  WEATHER ACROSS SOUTH DAKOTA  *****

CITY           SKY/WX    TMP DP  RH WIND       PRES   REMARKS
SIOUX FALLS    CLEAR     69  55  60 CALM      30.10R
BROOKINGS      NOT AVBL
WATERTOWN      CLEAR     68  55  63 NE3       30.09S
HURON          CLEAR     73  56  54 NE5       30.07S
SISSETON         N/A     68  59  73 W3        30.06S
ABERDEEN       CLEAR     67  57  70 S6        30.08S
MITCHELL       CLEAR     74  58  57 S6        30.09R
PIERRE         PTCLDY    77  57  50 E6        30.04S
MOBRIDGE       PTCLDY    74  60  61 NE7       30.06S
RAPID CITY     PTCLDY    69  52  54 N8        30.15S
$$

  *****  SOME WEATHER IN NEARBY STATES *****

CITY           SKY/WX    TMP DP  RH WIND       PRES   REMARKS
GLASGOW MT     CLEAR     85  43  22 SE7       30.05S
GREAT FALLS MT CLOUDY    82  43  25 W14G20    30.09R
CHEYENNE WY    CLOUDY    58  55  90 SW12      30.36S
SCOTTSBLUFF NE MOCLDY    71  57  61 SW6       30.22F
OMAHA NE       MOCLDY    73  55  53 CALM      30.10R
DES MOINES IA  PTCLDY    74  55  51 NW3       30.08R
DAVENPORT IA   CLEAR     66  61  84 NW5       30.05R
CHICAGO IL     PTCLDY    69  54  58 NE6       30.02R
EAU CLAIRE WI  PTCLDY    64  63  96 CALM      30.01R
LA CROSSE WI   MOCLDY    72  63  73 SW6       30.01S
$$

  *****  SOME NATIONAL WEATHER *****

CITY           SKY/WX    TMP DP  RH WIND       PRES   REMARKS
LA GUARDIA NY  PTCLDY    74  57  55 S7        30.04R
RALEIGH NC     MOCLDY    72  65  78 CALM      30.09R
ATLANTA GA     MOCLDY    80  56  43 N8        30.04R
NEW ORLEANS LA PTCLDY    80  61  52 NE9       30.01S
OKLAHOMA CITY  CLOUDY    70  67  90 NE9       29.97S
ALBUQUERQUE NM MOCLDY    81  61  50 E20       30.11S
SALT LAKE CITY PTCLDY    78  54  43 E10       30.13R
LOS ANGELES CA MOSUNNY   71  60  68 W15       29.90F
BOISE ID       MOSUNNY   85  46  25 E18G26    30.06R
SEATTLE WA     MOSUNNY   82  48  30 N12       30.10S
$$

*** WEATHER ACROSS MANITOBA...SASKATCHEWAN AND ONTARIO ***
                ***ONTARIO***

CITY           SKY/WX    TMP DP  RH WIND       PRES   REMARKS
GERALDTON      CLOUDY    59  52  77 N3        29.93R
THUNDER BAY    MOCLDY    61  59  94 CALM      29.93R
SIOUX LOOKOUT  NOT AVBL
TORONTO        PTCLDY    66  54  63 NW8       29.98R
BIG TROUT LK   CLEAR     64  45  48 N7        29.96S
PICKLE LAKE    PTCLDY    63  46  55 NE3       29.97R
DRYDEN         CLEAR     68  52  56 NW6       29.99S
KENORA         CLOUDY    72  54  53 N3        30.01
$$
                *** MANITOBA***

CITY           SKY/WX    TMP DP  RH WIND       PRES   REMARKS
BRANDON        PTCLDY    70  61  73 N2        30.08S
DAUPHIN        CLEAR     70  61  73 W7        30.06S
ISLAND LAKE    PTCLDY    70  52  52 N6        30.04S
PILOT MOUND      N/A     70  59  68 W3          N/A
THE PAS        CLOUDY    75  63  64 S5        30.03S
THOMPSON       PTCLDY    70  61  73 CALM      30.03F
WINNIPEG       PTCLDY    70  63  78 NW7       30.02S
LYNN LAKE      CLEAR     79  50  36 E3        30.05S
CHURCHILL      PTCLDY    59  50  72 SE8       30.11S
GILLAM         CLOUDY    66  54  63 E3        30.08S
$$
                ***SASKATCHEWAN***

CITY           SKY/WX    TMP DP  RH WIND       PRES   REMARKS
ESTEVAN        MOCLDY    68  59  73 N2        30.14R
KINDERSLEY     MOCLDY    77  70  78 NE6       30.02S
LLOYDMINSTER   PTCLDY    77  64  65 E7        30.05R
PRINCE ALBERT  MOCLDY    75  64  69 SE2       30.06F
REGINA         MOCLDY    73  59  60 SE12      30.08F



USA.gov is the U.S. government's official web portal to all federal, state and local government web resources and services.